Regional Weather Roundup
Issued by NWS

Home | Current Version | Previous Version | Graphics & Text | Print | Product List | Glossary On
Versions: 1 2 3 4 5 6 7 8 9 10 11 12 13 14 15 16 17 18 19 20 21 22 23 24 25 26 27 28 29 30 31 32 33 34 35 36 37 38 39 40 41 42 43 44 45 46 47 48 49 50
000
ASUS43 KDTX 041710
RWRMI
MICHIGAN HOURLY REGIONAL WEATHER ROUNDUP
NATIONAL WEATHER SERVICE DETROIT/PONTIAC MI
1200 PM EST WED MAR 04 2015

NOTE: "FAIR" INDICATES FEW OR NO CLOUDS BELOW 12,000 FEET WITH NO
SIGNIFICANT WEATHER AND/OR OBSTRUCTION TO VISIBILITY.

MIZ047>049-052>055-059>063-066>070-074>076-081>083-041800-
SOUTHEAST LOWER MICHIGAN

CITY           SKY/WX    TMP DP  RH WIND       PRES   REMARKS
ADRIAN         CLOUDY    32  21  64 NW10      29.96S WCI  24
ALMA           SUNNY     26  12  55 W14       29.96R WCI  14
ANN ARBOR      PTSUNNY   32  19  58 W14       29.94R WCI  22
BAD AXE        CLOUDY    26  17  67 NW12      29.91F WCI  16
CARO           CLOUDY    30  21  68 CALM      29.92R
DETROIT CITY   MOSUNNY   35  18  49 W12       29.94R WCI  27
DETROIT        PTSUNNY   34  19  54 SW14      29.96R WCI  25
FLINT          PTSUNNY   30  16  56 W14G23    29.95R WCI  19
GROSSE ILE     CLOUDY    34  21  60 W10       29.94S WCI  26
HILLSDALE      PTSUNNY   30  21  69 W12G17    29.95R WCI  20
HOWELL         MOSUNNY   29  17  60 W14G20    29.93S WCI  18

CITY           SKY/WX    TMP DP  RH WIND       PRES   REMARKS
JACKSON        PTSUNNY   29  17  61 W18G25    29.96R WCI  16
LAMBERTVILLE   CLOUDY    34  21  60 W9        29.96S WCI  26
LANSING        PTSUNNY   27  14  58 W16       29.96R WCI  15
LAPEER         FAIR      31  14  49 W13G20    29.91R WCI  21
MASON          PTSUNNY   29  17  60 W9G17     29.96S WCI  20
MONROE         CLOUDY    34  21  60 W13       29.95S WCI  25
MT. CLEMENS    PTSUNNY   35  20  55 W13       29.91R WCI  26
PONTIAC        PTSUNNY   31  18  58 W16       29.91R WCI  20
PORT HOPE        N/A     27  13  55 W9        29.89F WCI  18
PORT HURON     MOSUNNY   32  18  55 W6        29.92S WCI  26
TRI CITIES     CLOUDY    29  18  63 W14       29.94R WCI  18
TROY           MOSUNNY   35  22  58 W8        29.95R WCI  29
SAGINAW HB     SUNNY     30  18  59 W17       29.94R WCI  18
$$
MIZ043>046-050>051-056>058-064>065-071>073-077>080-041800-
SOUTHWEST LOWER MICHIGAN

CITY           SKY/WX    TMP DP  RH WIND       PRES   REMARKS
BATTLE CREEK   MOSUNNY   28  15  58 W13       29.98S WCI  17
BENTON HARBOR  CLOUDY    22  14  71 NW13G21   30.07R WCI  10
BIG RAPIDS     PTSUNNY   21   9  58 W13G20    29.95R WCI   9
COLDWATER      PTSUNNY   28  18  64 W9        29.98R WCI  19
FREMONT        CLOUDY    20  10  64 W12       30.00R WCI   9
HOLLAND        CLOUDY    22  11  62 NW17G23   30.05R WCI   8
GRAND RAPIDS   PTSUNNY   24  12  60 W14       30.00R WCI  12
IONIA          FAIR      28  16  61 W15       29.96S WCI  17
KALAMAZOO      PTSUNNY   27  15  61 W14       30.00R WCI  16
LUDINGTON      CLOUDY    18   6  59 NW14G21   30.04R WCI   4
MARSHALL       PTSUNNY   28  18  65 W12       29.97R WCI  18
MOUNT PLEASANT PTSUNNY   26  12  57 W9G16     29.95R WCI  16
MUSKEGON       FLURRIES  20  10  65 NW16G25   30.03R WCI   6
SOUTH HAVEN    PTSUNNY   24  13  64 NW13G20   30.06S WCI  12
$$
MIZ016>042-041800-
NORTHERN LOWER MICHIGAN

CITY           SKY/WX    TMP DP  RH WIND       PRES   REMARKS
ALPENA         LGT SNOW  19   9  65 NW9       29.90F WCI   8
BEAVER ISLAND  SUNNY     13  -1  54 W12G18    29.96R WCI  -1
BELLAIRE       CLOUDY    15   4  62 NW8       29.98R WCI   5
CADILLAC       CLOUDY    17   6  63 W16       29.91R WCI   1
CHARLEVOIX     SUNNY     13   2  61 NW16G22   30.00R WCI  -3
FRANKFORT      PTSUNNY   15   6  67 W14       30.02R WCI   0
GAYLORD        CLOUDY    12   4  70 NW8G17    29.88S HAZE    WCI   0
GRAYLING       LGT SNOW  18  10  69 W16       29.90S WCI   3
HARBOR SPRINGS CLOUDY    14   3  62 W9        29.94S HAZE    WCI   2
HOUGHTON LAKE  CLOUDY    19   8  62 W18G24    29.90R WCI   4
MANISTEE       CLOUDY    16   3  57 NW17      30.04R WCI   0
OSCODA         CLOUDY    26  13  59 W14G21    29.89S WCI  14
PELLSTON       CLOUDY    13   1  59 NW20      29.94S WCI  -5
ROGERS CITY    CLOUDY    17   6  62 W10       29.92S WCI   5
TRAVERSE CITY  LGT SNOW  16   7  67 W15       29.98R WCI   1
$$
MIZ007>008-015-041800-
EASTERN UPPER MICHIGAN

CITY           SKY/WX    TMP DP  RH WIND       PRES   REMARKS
KINROSS        CLOUDY    10   5  79 NW16      29.90S WCI  -7
MACKINAC ISLAN MOSUNNY   15   2  57 W14G22    29.92R WCI   0
NEWBERRY       CLOUDY     8   1  73 NW14      29.93R HAZE    WCI  -9
S. S. MARIE    LGT SNOW   9   0  67 NW16G23   29.93R WCI  -8
MUNISING         N/A     11  -3  53 NW18G29   29.97S WCI  -7
$$
MIZ004>006-011>014-085-041800-
CENTRAL UPPER MICHIGAN

CITY           SKY/WX    TMP DP  RH WIND       PRES   REMARKS
MANISTIQUE     PTSUNNY   13   0  56 NW7       29.95S WCI   3
ESCANABA       MOSUNNY   10  -6  48 NW13      30.00R WCI  -5
MENOMINEE      SUNNY     10  -8  44 W12       30.02S WCI  -4
SAWYER-GWINN   CLOUDY     7  -6  56 NW15G21   29.91S WCI -11
$$
MIZ001>003-009>011-084-041800-
WESTERN UPPER MICHIGAN

CITY           SKY/WX    TMP DP  RH WIND       PRES   REMARKS
IRON MOUNTAIN  MOSUNNY    8  -7  50 NW17G26   29.96S WCI -10
HOUGHTON       HVY SNOW   1  -6  72 NW29G40   29.95R VSB 1/4 WCI -24
COPPER HARBOR    N/A      1  -8  66 N18G29    29.98R WCI -20
IRONWOOD       PTSUNNY    1 -11  55 W14       30.01R WCI -17
$$

ABBREVIATIONS USED IN REMARKS
   TC - TEMPERATURE IN CELSIUS
  WCI - WIND CHILL INDEX
   HX - HEAT INDEX
  VSB - VISIBILITY




USA.gov is the U.S. government's official web portal to all federal, state and local government web resources and services.